SCP
0 0 0 0 0 0 0 0 0 0 0 0 0 0 0 0 0 0 0 0 0 0 0 0 0 0 0 0 0 0 0 0 0 0 0 0 0 0 0 0 0 0 0 0 0 0 0 0 0
0 0 0 0 0 0 0 0 0 0 0 0 0 0 0 0 0 0 0 0 0 0 0 0 0 0 0 0 0 0 0 0 0 0 0 0 0 0 0 0 0 0 0 0 0 0 0 0 0
0 0 0 0 0 0 0 0 0 0 0 0 0 0 0 0 0 0 0 0 0 0 0 0 0 0 0 0 0 0 0 0 0 0 0 0 0 0 0 0 0 0 0 0 0 0 0 0 0
-0 0 0 0 0 0 0 0 0 0 0 0 0 0 0 0 0 0 0 0 0 0 0 0 0 0 0 0 0 0 0 0 0 0 0 0 0 0 0 0 0 0 0 0 0 0 0 0 0
0 0 0 0 0 0 0 0 0 0 0 0 0 0 0 0 0 0 0 0 0 0 0 0 0 0 0 0 0 0 0 0 0 0 0 0 0 0 0 0 0 0 0 0 0 0 0 0 0
0 0 0 0 0 0 0 0 0 0 0 0 0 0 0 0 0 0 0 0 0 0 0 0 0 0 0 0 0 0 0 0 0 0 0 0 0 0 0 0 0 0 0 0 0 0 0 0 0
0 0 0 0 0 0 0 0 0 0 0 0 0 0 0 0 0 0 0 0 0 0 0 0 0 0 0 0 0 0 0 0 0 0 0 0 0 0 0 0 0 0 0 0 0 0 0 0 0
0 0 0 0 0 0 0 0 0 0 0 0 0 0 0 0 0 0 0 0 0 0 0 0 0 0 0 0 0 0 0 0 0 0 0 0 0 0 0 0 0 0 0 0 0 0 0 0 0
0 0 0 0 0 0 0 0 0 0 0 0 0 0 0 0 0 0 0 0 0 0 0 0 0 0 0 0 0 0 0 0 0 0 0 0 0 0 0 0 0 0 0 0 0 0 0 0 0
0 0 0 0 0 0 0 0 0 0 0 0 0 0 0 0 0 0 0 0 0 0 0 0 0 0 0 0 0 0 0 0 0 0 0 0 0 0 0 0 0 0 0 0 0 0 0 0 0
0 0 0 0 0 0 0 0 0 0 0 0 0 0 0 0 0 0 0 0 0 0 0 0 0 0 0 0 0 0 0 0 0 0 0 0 0 0 0 0 0 0 0 0 0 0 0 0 0
0 0 0 0 0 0 0 0 0 0 0 0 0 0 0 0 0 0 0 0 0 0 0 0 0 0 0 0 0 0 0 0 0 0 0 0 0 0 0 0 0 0 0 0 0 0 0 0 0
0 0 0 0 0 0 0 0 0 0 0 0 0 0 0 0 0 0 0 0 0 0 0 0 0 0 0 0 0 0 0 0 0 0 0 0 0 0 0 0 0 0 0 0 0 0 0 0 0
0 0 0 0 0 0 0 0 0 0 0 0 0 0 0 0 0 0 0 0 0 0 0 0 0 0 0 0 0 0 0 0 0 0 0 0 0 0 0 0 0 0 0 0 0 0 0 0 0
0 0 0 0 0 0 0 0 0 0 0 0 0 0 0 0 0 0 0 0 0 0 0 0 0 0 0 0 0 0 0 0 0 0 0 0 0 0 0 0 0 0 0 0 0 0 0 0 0
0 0 0 0 0 0 0 0 0 0 0 0 0 0 0 0 0 0 0 0 0 0 0 0 0 0 0 0 0 0 0 0 0 0 0 0 0 0 0 0 0 0 0 0 0 0 0 0 0
0 0 0 0 0 0 0 0 0 0 0 0 0 0 0 0 0 0 0 0 0 0 0 0 0 0 0 0 0 0 0 0 0 0 0 0 0 0 0 0 0 0 0 0 0 0 0 0 0
0 0 0 0 0 0 0 0 0 0 0 0 0 0 0 0 0 0 0 0 0 0 0 0 0 0 0 0 0 0 0 0 0 0 0 0 0 0 0 0 0 0 0 0 0 0 0 0 0
0 0 0 0 0 0 0 0 0 0 0 0 0 0 0 0 0 0 0 0 0 0 0 0 0 0 0 0 0 0 0 0 0 0 0 0 0 0 0 0 0 0 0 0 0 0 0 0 0
0 0 0 0 0 0 0 0 0 0 0 0 0 0 0 0 0 0 0 0 0 0 0 0 0 0 0 0 0 0 0 0 0 0 0 0 0 0 0 0 0 0 0 0 0 0 0 0 0
0 0 0 0 0 0 0 0 0 0 0 0 0 0 0 0 0 0 0 0 0 0 0 0 0 0 0 0 0 0 0 0 0 0 0 0 0 0 0 0 0 0 0 0 0 0 0 0 0
0 0 0 0 0 0 0 0 0 0 0 0 0 0 0 0 0 0 0 0 0 0 0 0 0 0 0 0 0 0 0 0 0 0 0 0 0 0 0 0 0 0 0 0 0 0 0 0 0
0 0 0 0 0 0 0 0 0 0 0 0 0 0 0 0 0 0 0 0 0 0 0 0 0 0 0 0 0 0 0 0 0 0 0 0 0 0 0 0 0 0 0 0 0 0 0 0 0
0 0 0 0 0 0 0 0 0 0 0 0 0 0 0 0 0 0 0 0 0 0 0 0 0 0 0 0 0 0 0 0 0 0 0 0 0 0 0 0 0 0 0 0 0 0 0 0 0
0 0 0 0 0 0 0 0 0 0 0 0 0 0 0 0 0 0 0 0 0 0 0 0 0 0 0 0 0 0 0 0 0 0 0 0 0 0 0 0 0 0 0 0 0 0 0 0 0
0 0 0 0 0 0 0 0 0 0 0 0 0 0 0 0 0 0 0 0 0 0 0 0 0 0 0 0 0 0 0 0 0 0 0 0 0 0 0 0 0 0 0 0 0 0 0 0 0
0 0 0 0 0 0 0 0 0 0 0 0 0 0 0 0 0 0 0 0 0 0 0 0 0 0 0 0 0 0 0 0 0 0 0 0 0 0 0 0 0 0 0 0 0 0 0 0 0
0 0 0 0 0 0 0 0 0 0 0 0 0 0 0 0 0 0 0 0 0 0 0 0 0 0 0 0 0 0 0 0 0 0 0 0 0 0 0 0 0 0 0 0 0 0 0 0 0
0 0 0 0 0 0 0 0 0 0 0 0 0 0 0 0 0 0 0 0 0 0 0 0 0 0 0 0 0 0 0 0 0 0 0 0 0 0 0 0 0 0 0 0 0 0 0 0 0
0 0 0 0 0 0 0 0 0 0 0 0 0 0 0 0 0 0 0 0 0 0 0 0 0 0 0 0 0 0 0 0 0 0 0 0 0 0 0 0 0 0 0 0 0 0 0 0 0
Wind_Speed
5 2 3 4 7 6 0 2 2 1 1 0 2 5 8 6 5 3 0 8 7 9 8 11 15 14 13 13 12 11 11 10 10 9 9 10 10 10 10 11 11 11 12 12 12 12 13 13 13
1 1 5 6 6 2 3 3 3 3 3 4 3 4 3 2 1 3 3 7 9 10 8 8 14 14 14 13 12 12 11 10 10 9 8 9 9 9 10 10 11 11 11 11 11 11 11 11 11
1 4 5 5 4 5 4 3 4 1 3 3 3 1 3 3 3 5 5 9 8 8 7 9 15 15 14 14 13 12 11 10 10 9 9 8 9 9 9 10 10 10 10 10 10 10 10 10 10
3 5 6 5 1 4 4 3 3 3 2 1 3 2 1 1 3 5 7 10 10 8 7 9 16 15 14 14 13 12 12 11 10 9 9 8 8 8 9 9 8 8 9 9 9 9 9 9 10
5 5 5 2 2 3 3 2 3 3 3 2 4 4 2 1 2 6 10 11 11 8 7 8 15 15 15 14 13 13 12 11 10 9 8 8 8 8 7 7 7 7 7 7 8 8 8 8 9
5 5 4 1 3 3 2 2 3 2 2 2 5 4 3 0 4 7 10 10 9 9 7 7 15 15 15 14 13 13 12 11 10 9 8 8 7 7 6 6 5 5 6 6 6 7 7 8 8
5 4 3 2 2 3 2 2 4 4 3 5 7 5 3 2 4 7 8 8 7 7 7 6 7 10 14 14 13 13 12 11 10 9 8 7 6 6 5 5 4 4 4 5 6 6 7 7 7
5 5 2 1 2 3 2 2 2 5 4 2 6 6 5 4 7 8 7 6 6 6 6 6 5 6 7 8 12 13 12 12 10 9 8 7 6 5 4 3 3 4 4 5 5 6 6 7 7
4 5 2 4 4 4 1 1 1 1 3 2 3 4 1 8 11 10 6 6 6 7 6 6 6 6 6 6 8 10 11 10 9 7 8 6 3 3 2 2 3 3 3 4 4 5 6 7 7
4 3 5 4 4 3 1 2 2 2 2 2 3 1 4 9 13 13 12 13 13 13 10 7 7 7 6 6 5 4 4 5 5 4 5 3 3 2 2 1 1 2 3 3 4 5 6 5 3
3 5 3 3 3 2 2 2 2 3 5 7 7 6 7 9 11 13 13 14 14 12 12 10 8 7 7 5 4 3 3 3 4 5 5 4 3 2 1 1 1 2 3 2 3 4 3 3 2
2 3 3 3 2 2 3 2 2 6 9 6 6 5 9 12 14 15 15 13 11 11 13 11 10 8 8 6 5 4 4 3 4 5 6 4 3 2 2 1 0 0 1 1 1 1 2 2 2
3 3 3 3 3 3 3 4 4 7 9 4 2 5 10 13 14 13 11 9 9 12 13 13 11 10 8 7 5 5 5 5 5 5 5 5 4 3 3 2 1 1 1 0 0 1 1 2 2
3 3 3 4 3 3 4 5 4 9 4 3 4 7 10 12 13 9 9 10 12 13 14 13 13 12 10 8 7 6 6 5 5 5 6 6 5 4 3 3 2 2 2 1 1 0 0 1 1
1 2 4 3 2 2 1 7 8 8 2 4 6 7 8 10 9 11 13 13 14 13 12 13 14 12 12 10 9 6 6 6 5 5 6 6 6 5 4 3 3 2 2 2 1 1 0 1 1
2 1 3 5 2 2 2 10 9 3 3 7 8 7 8 9 10 11 11 10 10 10 11 13 12 13 13 11 9 6 6 6 6 5 5 7 7 6 5 4 4 3 2 2 2 1 0 1 1
1 1 4 6 2 1 4 10 10 3 4 8 9 8 8 8 9 9 9 10 10 11 12 13 13 14 14 12 8 7 6 7 6 5 5 7 8 7 6 5 4 4 3 2 2 1 1 1 1
5 4 4 5 3 2 5 12 13 6 6 9 9 8 7 8 11 9 9 9 9 9 10 11 12 12 11 8 6 5 5 5 5 6 7 8 7 8 6 4 5 4 3 2 2 2 1 1 1
4 4 5 6 3 2 8 13 16 10 6 8 8 7 8 10 9 6 6 6 7 8 10 12 13 11 10 8 8 7 7 6 6 6 8 8 8 8 7 5 5 5 4 4 4 2 2 1 0
5 5 6 5 2 2 7 13 12 8 7 7 7 7 7 7 6 5 4 6 8 10 11 12 13 12 12 10 8 6 5 4 5 5 6 8 8 8 7 7 6 6 4 4 4 3 2 1 1
7 8 7 5 4 2 5 10 7 5 4 5 6 6 6 7 7 6 5 6 7 9 11 11 12 12 12 10 6 4 3 2 3 5 6 8 9 8 8 8 7 6 6 5 6 5 5 3 2
9 7 6 4 2 5 2 7 10 5 7 6 6 6 6 5 5 5 5 6 8 9 8 9 10 11 11 11 10 10 8 8 8 6 6 6 8 9 9 8 8 7 6 6 6 6 4 4 3
6 3 4 3 3 4 2 4 12 4 6 8 7 7 6 5 5 5 6 6 6 6 6 7 8 9 10 11 12 11 10 8 4 4 6 7 7 8 8 8 8 7 6 7 6 6 6 5 5
5 5 3 2 1 6 7 6 11 6 8 6 5 5 6 5 4 4 4 3 4 4 5 6 8 9 10 11 11 12 12 9 7 7 7 7 5 6 8 8 8 8 7 7 7 7 7 6 5
5 5 0 2 2 8 4 6 13 9 8 7 8 7 6 5 4 4 4 3 4 5 6 6 8 9 9 10 11 12 12 11 11 10 9 8 6 6 9 8 8 7 8 8 7 7 7 7 7
8 9 8 6 6 5 3 9 12 8 7 7 8 7 5 5 4 5 5 4 5 5 6 7 8 9 9 10 11 10 10 8 8 9 8 9 8 8 8 9 9 9 8 8 7 6 7 6 7
8 7 6 5 2 3 6 8 13 5 6 6 6 6 7 6 5 5 5 4 5 5 6 7 8 8 9 9 9 9 9 9 8 8 8 6 6 6 7 8 8 8 8 8 7 6 7 6 7
7 9 6 6 5 6 6 6 8 6 7 6 7 8 8 6 5 5 4 4 4 4 4 5 7 8 7 8 8 7 8 9 8 7 8 7 7 6 7 7 8 8 7 7 7 6 6 6 6
7 6 6 5 5 6 5 9 9 9 7 8 10 9 8 7 6 5 5 4 3 3 4 4 5 6 6 7 7 7 7 7 7 7 7 7 6 6 7 8 8 7 7 7 7 7 7 8 7
7 9 9 8 7 6 5 12 6 7 7 7 9 8 6 6 5 5 4 3 3 3 4 4 5 5 6 6 6 6 6 6 6 7 7 6 6 6 7 6 7 7 7 7 8 8 8 8 8
Wind_Direction
340 36 78 58 54 50 179 257 226 233 217 167 139 148 155 162 170 197 177 148 142 149 166 171 164 159 152 145 138 133 128 121 113 105 99 93 90 87 85 81 76 73 70 68 66 64 62 60 61
351 63 56 59 83 81 269 250 217 215 173 132 103 116 135 179 180 142 152 171 150 152 159 163 163 159 154 148 142 139 133 127 120 113 107 102 97 92 89 84 79 75 72 70 68 65 63 61 60
81 55 77 73 110 175 213 221 209 212 159 153 119 124 165 175 177 184 190 160 145 150 154 165 164 162 158 153 149 144 138 134 128 119 113 110 105 98 93 87 82 77 75 72 69 65 63 62 61
76 48 56 74 188 218 218 222 190 145 158 155 137 130 248 220 185 182 151 150 146 152 156 170 167 165 162 159 155 150 146 141 135 126 119 114 109 103 97 91 85 80 76 73 69 64 62 61 58
60 74 62 39 274 261 247 234 182 170 175 165 147 157 217 340 104 137 146 154 153 156 161 173 171 170 165 161 158 155 152 147 143 137 130 123 117 110 104 98 90 83 77 72 67 62 60 58 56
58 68 89 227 275 295 274 190 161 181 174 159 151 161 229 81 139 155 154 156 157 157 162 173 176 171 168 165 162 160 158 155 152 148 141 134 127 122 116 109 99 89 81 73 66 63 59 56 53
102 100 149 198 263 287 261 157 173 179 191 201 168 158 257 222 175 152 147 143 149 156 161 176 175 170 170 168 166 166 164 163 160 156 151 142 136 133 124 116 105 93 78 70 64 60 54 48 46
119 108 127 202 217 254 253 181 195 179 208 175 152 163 225 206 141 127 123 134 149 161 169 176 170 164 165 169 172 170 170 169 166 160 152 146 140 129 121 110 104 94 81 71 60 49 43 40 36
92 86 189 213 205 244 237 189 228 182 145 173 209 208 214 130 132 132 137 157 172 181 183 179 173 167 164 167 177 172 172 171 166 158 152 136 108 94 94 108 113 102 84 68 53 44 38 36 27
95 152 218 217 203 220 223 199 212 150 183 227 246 218 110 139 154 163 173 182 189 192 190 185 179 173 168 173 166 160 161 160 151 145 143 129 124 117 109 97 98 86 63 47 41 39 35 33 19
143 187 227 244 229 223 224 226 196 177 229 222 216 201 152 165 174 182 188 191 194 192 191 189 185 178 174 170 160 159 155 152 150 151 149 139 129 118 99 79 36 39 46 36 29 29 22 19 10
170 228 225 246 234 228 228 234 230 206 226 228 218 177 170 179 189 194 196 197 191 189 195 191 186 182 181 173 170 166 165 164 165 165 159 151 150 153 152 148 150 94 75 65 36 24 7 9 10
210 250 249 253 263 253 250 243 247 248 249 264 240 179 190 195 202 206 204 195 189 195 197 194 188 187 182 177 178 177 179 178 175 169 169 166 166 172 171 176 180 186 160 145 59 10 3 3 359
229 243 272 271 261 249 239 259 242 257 257 262 228 213 209 208 208 203 199 197 198 201 199 193 193 190 184 186 186 184 183 178 175 178 179 177 174 173 175 184 190 202 195 189 186 198 4 346 346
190 307 307 280 252 256 247 287 240 248 258 268 255 239 230 226 217 211 207 204 202 202 197 194 195 190 189 191 191 186 183 179 183 187 183 183 179 178 179 184 194 206 193 177 157 132 67 3 352
65 35 286 282 249 241 179 267 265 252 218 257 260 253 245 239 226 223 216 211 203 196 194 195 194 192 193 193 190 187 183 185 189 186 185 189 187 182 181 187 199 194 175 169 163 152 121 329 334
20 245 253 287 255 200 204 257 269 256 238 260 262 256 248 251 245 232 220 213 203 197 193 192 193 192 194 193 189 187 183 190 191 185 188 193 191 188 185 193 198 180 172 176 175 151 165 247 303
217 222 245 257 278 224 243 261 275 272 245 257 264 263 254 247 244 233 221 213 202 196 193 193 193 192 187 183 177 177 186 195 192 192 196 193 193 190 186 192 192 176 171 178 173 169 162 199 266
183 205 242 254 264 256 255 267 276 281 264 260 262 258 254 252 251 238 219 204 192 190 191 192 192 188 178 180 184 188 198 198 198 201 199 195 192 188 188 190 186 182 186 191 178 163 172 208 124
197 229 256 281 282 254 279 276 272 264 249 244 249 254 255 261 269 249 220 198 195 195 195 194 194 188 186 190 186 184 180 189 197 196 198 197 194 191 192 190 190 188 186 184 181 169 165 186 146
212 215 230 256 320 330 320 299 288 279 270 264 249 246 250 247 255 252 225 209 201 200 198 196 195 190 190 181 162 142 135 140 175 196 202 202 198 196 195 195 192 190 186 192 194 185 178 190 196
229 217 209 228 281 289 351 296 286 282 296 273 259 256 258 259 253 247 230 218 211 211 199 195 190 189 186 176 177 179 187 197 201 196 197 196 196 198 199 197 194 192 191 195 197 190 185 172 191
207 158 172 205 212 277 257 245 279 293 270 262 256 253 256 257 252 251 238 226 218 205 195 192 186 188 184 184 188 191 201 207 192 180 190 197 199 201 201 198 195 196 197 200 195 187 190 188 185
142 93 67 51 103 258 230 210 273 243 230 255 259 252 255 260 260 260 251 224 208 189 187 185 186 192 187 189 192 197 202 198 187 192 197 201 200 201 203 200 200 201 199 201 202 197 194 198 196
145 129 122 279 244 246 209 214 251 244 231 232 250 257 259 259 255 260 252 225 210 196 192 188 191 197 192 193 199 203 205 200 201 200 201 200 199 204 207 202 204 205 206 203 198 196 202 200 200
184 168 181 206 224 265 214 231 252 246 250 247 248 251 256 257 251 252 246 229 221 211 198 193 198 202 195 197 204 205 204 203 208 205 201 203 207 210 203 202 206 208 206 203 198 200 206 203 208
165 198 177 148 192 258 258 273 293 267 256 242 239 240 244 247 250 253 252 234 224 217 208 200 201 205 201 201 202 204 204 206 209 206 204 205 208 205 201 201 207 209 206 203 197 206 209 204 209
170 152 138 163 189 238 267 258 248 262 243 237 233 234 241 247 254 257 252 238 228 219 213 202 204 208 204 200 201 205 206 208 208 201 204 206 207 201 196 200 205 207 205 202 199 208 207 205 213
150 171 167 163 180 186 243 259 226 222 226 229 237 236 235 237 244 249 250 243 230 217 205 201 202 204 203 201 200 202 204 203 202 205 208 207 205 200 202 204 205 207 207 203 203 211 205 210 217
176 175 164 177 209 195 209 263 251 224 238 235 242 244 241 240 244 245 246 242 229 222 215 206 202 203 205 198 194 199 200 196 202 210 210 203 203 202 204 203 205 209 209 204 204 212 211 213 219